Regional Weather Roundup
Issued by NWS Charleston, SC

Home | Current Version | Previous Version | Text Only | Print | Product List | Glossary On
Versions: 1 2 3 4 5 6 7 8 9 10 11 12 13 14 15 16 17 18 19 20 21 22 23 24 25 26 27 28 29 30 31 32 33 34 35 36 37 38 39 40 41 42 43 44 45 46 47 48 49 50
000
ASUS42 KCHS 241728
RWRCHS

REGIONAL WEATHER ROUNDUP
NATIONAL WEATHER SERVICE CHARLESTON SC
100 PM EDT TUE MAY 24 2016

NOTE: "FAIR" INDICATES FEW OR NO CLOUDS BELOW 12,000 FEET WITH NO
SIGNIFICANT WEATHER AND/OR OBSTRUCTIONS TO VISIBILITY.

NOT ALL STATIONS ARE QUALITY CONTROLLED. USE DATA WITH CAUTION...
ESPECIALLY DEWPOINT OBSERVATIONS.

SCZ027-030-031-034>040-042>050-241800-
...SOUTHEAST SOUTH CAROLINA...

CITY           SKY/WX    TMP DP  RH WIND       PRES   REMARKS
N CHARLESTON   MOSUNNY   82  52  35 NW7       30.17F
WATERFRONT PRK   N/A     75  55  49 SE5       30.16R
MOUNT PLEASANT FAIR      81  50  34 W5        30.17S
JOHNS ISLAND   FAIR      79  59  50 S12       30.17S
PINOPOLIS        N/A     79  52  38 VRB3      30.10F
MONCKS CORNER  FAIR      77  43  29 SW3       30.16F
SUMMERVILLE    FAIR      81  57  44 W6        30.18S
BEAUFORT MCAS  MOSUNNY   80  60  50 E5        30.18S
BEAUFORT ARPT  PTSUNNY   79  59  50 NE5       30.17S
HILTON HEAD IS MOSUNNY   79  63  57 E6        30.20R
WALTERBORO     MOSUNNY   82  55  39 S5        30.17F
ALLENDALE      FAIR      81  57  44 VRB6      30.15F

...SOUTHERN MIDLANDS AND PEE DEE...

CITY           SKY/WX    TMP DP  RH WIND       PRES   REMARKS
GEORGETOWN     FAIR      77  46  33 CALM      30.17F
KINGSTREE      FAIR      79  45  29 NW5       30.17S
ORANGEBURG     MOSUNNY   79  57  46 S5        30.17S
BARNWELL       FAIR      84  61  45 S8        30.16F
AIKEN          FAIR      79  54  41 SW7       30.19S
MANNING        FAIR      77  50  38 SW6       30.17F
COLUMBIA       MOSUNNY   82  50  32 SE5       30.15S
SUMTER         MOSUNNY   78  52  40 VRB5      30.15S
FLORENCE       SUNNY     79  52  38 VRB5      30.16S
MYRTLE BEACH   SUNNY     79  52  38 SW13      30.17S
N MYRTLE BEACH SUNNY     75  55  49 S14       30.15S

$$

GAZ063-065-086>088-099>101-113>116-118-119-134>141-150-241800-
...SOUTHEAST GEORGIA...

CITY           SKY/WX    TMP DP  RH WIND       PRES   REMARKS
SAVANNAH ARPT  MOSUNNY   81  58  45 CALM      30.16F
HUNTER AAF     PTSUNNY   79  66  64 E13       30.14S
FORT STEWART   MOSUNNY   85  54  35 VRB5      30.14S
STATESBORO     SUNNY     85  60  42 SW5       30.15F
SYLVANIA       SUNNY     85  58  39 SW5       30.16F
CLAXTON        FAIR      85  58  39 CALM      30.15F

...CSRA...CENTRAL AND FAR SOUTHEAST GEORGIA...

CITY           SKY/WX    TMP DP  RH WIND       PRES   REMARKS
THOMSON        SUNNY     82  59  44 CALM      30.20F
AUGUSTA-BUSH   SUNNY     82  58  43 S3        30.15S
AUGUSTA-DANIEL SUNNY     81  57  43 VRB5      30.17S
SWAINSBORO     PTSUNNY   82  50  32 W7        30.16S
VIDALIA        MOSUNNY   84  52  32 NW6       30.15F
EASTMAN        FAIR      86  46  25 SW3       30.18S
HAZLEHURST     FAIR      86  47  25 W7        30.15S
ALMA           MOSUNNY   85  49  28 CALM      30.15S
WAYCROSS       SUNNY     84  52  32 W3        30.15S
JESUP          FAIR      81  48  32 NE3       30.16S
BAXLEY         PTSUNNY   84  50  30 SW3       30.15S
BRUNSWICK      MOSUNNY   88  64  45 E10       30.16F
SAINT SIMONS   CLOUDY    79  66  64 E10       30.16S

$$

SCZ027-028-034-036>038-045-046-048>050-GAZ119-141-241800-
...LAKE AND SUPPLEMENTAL COASTAL OBSERVATIONS...

STATION/POSITION TIME  TEMP    WIND        PRES    WAVE   SWELL
                       AIR SEA DIR/SP/G            HT/PER HT/PER/DIR
                 (UTC) (F)     (DEG/KT/KT) (MB)    (FT/S) (FT/S/D)
WINYAH BAY       1600   73     170/  7     1021.0R
LAKE MURRAY      1600   76        CALM     1020.7S
ACE BASIN NERRS  1600   80     170/  2     1022.0S
FORT PULASKI     1700   74 75  100/ 10/ 12 1022.3S
SAPELO ISLAND    1700   81     100/  7     1021.0S

$$

ANZ835-935-AMZ111-154-330-350-352-354-370-450-454-472-241800-
...C-MAN AND BUOY OBSERVATIONS...

STATION/POSITION TIME  TEMP    WIND        PRES    WAVE   SWELL
                       AIR SEA DIR/SP/G            HT/PER HT/PER/DIR
                 (UTC) (F)     (DEG/KT/KT) (MB)    (FT/S) (FT/S/D)
BUOY 41004       NOT AVBL
BUOY 41008       1650   75 77   80/  8/ 10 1022.0R   2/10   2/100/10
FOLLY BEACH CMAN 1700   73     130/  6/  8 1022.2F
CAPERS NEARSHORE 1608   73 74  170/  2/  4 1022.0R
FRIPP NEARSHORE  1608   73 75   90/  8/ 10 1021.5R


STATION/POSITION TIME  TEMP    WIND        PRES    WAVE   SWELL
                       AIR SEA DIR/SP/G            HT/PER HT/PER/DIR
                 (UTC) (F)     (DEG/KT/KT) (MB)    (FT/S) (FT/S/D)
5E ST. MARYS GA  1621      79                N/A     2/ 9
FRYING PAN BUOY  1700   71 77   CALM  /  4 1021.4R
BUOY 41025       1650   68 79  260/ 14/ 16 1019.4S   4/10   3/ 80/10
CAPE LOOKOUT NC  1700   72     230/ 10/ 15 1019.7F
BUOY 41002       1650   73 78  320/ 12/ 16 1020.6R   5/ 9   5/ 30/ 9
BUOY 41010       1620   78 78   70/  8/ 10 1021.5R
ST AUGUSTINE FL  1700   78 80  130/ 10/ 11 1022.0S


$$



USA.gov is the U.S. government's official web portal to all federal, state and local government web resources and services.